Weather History for Port Moresby Airport, Papua New Guinea

Change the Weather History Date:

Monday, February 18, 2013

  Actual Average Record
Temperature  
Mean Temperature 82 °F -  
Max Temperature 89 °F - - ()
Min Temperature 75 °F - - ()
Cooling Degree Days 17    
Growing Degree Days 32 (Base 50)    
Moisture  
Dew Point 76 °F    
Average Humidity 84    
Maximum Humidity 100    
Minimum Humidity 66    
Precipitation  
Precipitation 0.00 in - - ()
Sea Level Pressure  
Sea Level Pressure 29.64 in    
Wind  
Wind Speed 2 mph ()    
Max Wind Speed 12 mph    
Max Gust Speed -    
Visibility 6.2 miles    
Events Rain , Thunderstorm    
T = Trace of Precipitation, MM = Missing Value Source: Averaged Metar Reports

Daily Weather History Graph

Daily Weather History Graph

Search for Another Location

Airport:

Trip Planner

Search our weather history database for the weather conditions in past years. The results will help you decide how hot, cold, wet, or windy it might be!

Date:

Astronomy

Feb. 18, 2013 Rise Set
Actual Time 6:13 AM PGT 6:36 PM PGT
Civil Twilight 5:52 AM PGT 6:57 PM PGT
Nautical Twilight 5:27 AM PGT 7:22 PM PGT
Astronomical Twilight 5:02 AM PGT 7:47 PM PGT
Moon 12:33 PM PGT (2/18) No Moon Set
Length of Visible Light 13h 05m
Length of Day
12h 22m
First Quarter, 52% of the Moon is Illuminated
Feb 18
First Quarter
Feb 26
Full
Mar 5
Last Quarter
Mar 12
New
Mar 20
First Quarter

Hourly Weather History & Observations

Time (PGT) Temp. Heat Index Dew Point Humidity Pressure Visibility Wind Dir Wind Speed Gust Speed Precip Events Conditions
12:00 AM 77.0 °F - 75.2 °F 94% 29.68 in 6.2 mi Calm Calm - N/A   Scattered Clouds
1:00 AM 75.2 °F - 75.2 °F 100% 29.65 in 6.2 mi Calm Calm - N/A   Partly Cloudy
2:00 AM 75.2 °F - 75.2 °F 100% 29.62 in 6.2 mi Calm Calm - N/A   Partly Cloudy
5:00 AM 75.2 °F - 73.4 °F 94% 29.65 in 6.2 mi Calm Calm - N/A   Partly Cloudy
6:00 AM 75.2 °F - 73.4 °F 94% 29.65 in 6.2 mi Calm Calm - N/A   Scattered Clouds
7:00 AM 77.0 °F - 73.4 °F 89% 29.65 in 6.2 mi Calm Calm - N/A   Scattered Clouds
8:00 AM 78.8 °F - 73.4 °F 83% 29.68 in 6.2 mi Calm Calm - N/A   Scattered Clouds
9:00 AM 84.2 °F 92.3 °F 75.2 °F 74% 29.71 in 6.2 mi Variable 3.5 mph - N/A   Scattered Clouds
10:00 AM - - - N/A% 29.68 in 6.2 mi Variable 2.3 mph - N/A   Scattered Clouds
11:00 AM 87.8 °F 99.7 °F 77.0 °F 70% 29.68 in 6.2 mi West 3.5 mph - N/A   Mostly Cloudy
12:00 PM 86.0 °F 96.9 °F 77.0 °F 74% 29.65 in 6.2 mi South 11.5 mph - N/A   Mostly Cloudy
1:00 PM 86.0 °F 99.3 °F 78.8 °F 79% 29.65 in 6.2 mi West 9.2 mph - N/A Rain Light Rain Showers
2:00 PM 89.6 °F 102.2 °F 77.0 °F 66% 29.59 in 6.2 mi West 11.5 mph - N/A   Scattered Clouds
3:00 PM 87.8 °F 97.6 °F 75.2 °F 66% 29.59 in 6.2 mi West 9.2 mph - N/A   Mostly Cloudy
4:00 PM 84.2 °F 94.1 °F 77.0 °F 79% 29.56 in 6.2 mi West 9.2 mph - N/A Rain , Thunderstorm Thunderstorms and Rain
4:30 PM 84.2 °F 94.1 °F 77.0 °F 79% 29.59 in 6.2 mi Calm Calm - N/A Thunderstorm Thunderstorm
5:00 PM 84.2 °F 94.1 °F 77.0 °F 79% 29.59 in 6.2 mi Calm Calm - N/A Thunderstorm Thunderstorm
6:00 PM 78.8 °F - 75.2 °F 89% 29.62 in 6.2 mi Calm Calm - N/A   Overcast
7:00 PM 78.8 °F - 75.2 °F 89% 29.62 in 6.2 mi Calm Calm - N/A   Mostly Cloudy
8:00 PM 78.8 °F - 75.2 °F 89% 29.65 in 6.2 mi Calm Calm - N/A   Mostly Cloudy
9:00 PM 78.8 °F - 75.2 °F 89% 29.65 in 6.2 mi Calm Calm - N/A   Overcast
10:00 PM 78.8 °F - 75.2 °F 89% 29.65 in 6.2 mi Calm Calm - N/A   Overcast
11:00 PM 78.8 °F - 75.2 °F 89% 29.68 in 6.2 mi Calm Calm - N/A   Mostly Cloudy